• In Österreich
  • Länderverzeichnis
  • Für 7 Tage
  • Wassertemperatur
  • Satellitenkarten
  • Wetterkarte
  • News
  • Widgets
  • user-avatar
    Anmelden

    Stündliche Wetter Tshikapa

    Heute, 21 Oktober, Sonntag

    Zeit Temperatur Niederschläge Wind Luftdruck Luftfeuchtigkeit
    00:00 +23°C° 0 mm 0 m/S 714 mmHg 84%
    01:00 +23°C° 0 mm 0 m/S 714 mmHg 85%
    02:00 +22°C° 0.2 mm 0 m/S 714 mmHg 87%
    03:00 +22°C° 0.2 mm 0 m/S 714 mmHg 88%
    04:00 +22°C° 0.2 mm 0 m/S 714 mmHg 90%
    05:00 +23°C° 0 mm 0 m/S 715 mmHg 85%
    06:00 +24°C° 0 mm 0 m/S 715 mmHg 80%
    07:00 +26°C° 0 mm 0 m/S 716 mmHg 75%
    08:00 +30°C° 0.3 mm 1 m/S 716 mmHg 65%
    09:00 +33°C° 0.3 mm 1 m/S 716 mmHg 54%
    10:00 +36°C° 0.3 mm 2 m/S 716 mmHg 43%
    11:00 +37°C° 0 mm 2 m/S 715 mmHg 40%
    12:00 +37°C° 0 mm 2 m/S 715 mmHg 37%
    13:00 +38°C° 0 mm 2 m/S 714 mmHg 34%
    14:00 +36°C° 0 mm 2 m/S 713 mmHg 39%
    15:00 +34°C° 0 mm 1 m/S 713 mmHg 44%
    16:00 +33°C° 0 mm 1 m/S 713 mmHg 49%
    17:00 +31°C° 0.2 mm 1 m/S 713 mmHg 55%
    18:00 +30°C° 0.2 mm 1 m/S 713 mmHg 62%
    19:00 +28°C° 0.2 mm 1 m/S 714 mmHg 69%
    20:00 +28°C° 0.2 mm 1 m/S 714 mmHg 72%
    21:00 +27°C° 0.2 mm 1 m/S 714 mmHg 74%
    22:00 +24°C° 0.2 mm 0 m/S 714 mmHg 76%
    23:00 +24°C° 0.1 mm 0 m/S 714 mmHg 78%

    Morgen, 22 Oktober, Montag

    Zeit Temperatur Niederschläge Wind Luftdruck Luftfeuchtigkeit
    00:00 +24°C° 0.1 mm 0 m/S 714 mmHg 79%
    01:00 +23°C° 0.1 mm 0 m/S 714 mmHg 80%
    02:00 +23°C° 0.7 mm 0 m/S 714 mmHg 84%
    03:00 +22°C° 0.7 mm 0 m/S 714 mmHg 89%
    04:00 +21°C° 0.7 mm 0 m/S 714 mmHg 93%
    05:00 +22°C° 0.3 mm 0 m/S 715 mmHg 91%
    06:00 +23°C° 0.3 mm 0 m/S 715 mmHg 89%
    07:00 +24°C° 0.3 mm 0 m/S 716 mmHg 87%
    08:00 +26°C° 0.6 mm 0 m/S 716 mmHg 78%
    09:00 +31°C° 0.6 mm 1 m/S 716 mmHg 69%
    10:00 +33°C° 0.6 mm 1 m/S 716 mmHg 60%
    11:00 +32°C° 2.5 mm 1 m/S 716 mmHg 67%
    12:00 +31°C° 2.5 mm 1 m/S 715 mmHg 73%
    13:00 +29°C° 2.5 mm 1 m/S 715 mmHg 80%
    14:00 +29°C° 0.5 mm 1 m/S 715 mmHg 81%
    15:00 +28°C° 0.5 mm 1 m/S 715 mmHg 83%
    16:00 +27°C° 0.5 mm 1 m/S 715 mmHg 85%
    17:00 +27°C° 0 mm 1 m/S 715 mmHg 87%
    18:00 +26°C° 0 mm 1 m/S 715 mmHg 88%
    19:00 +25°C° 0 mm 1 m/S 715 mmHg 90%
    20:00 +25°C° 0 mm 1 m/S 716 mmHg 90%
    21:00 +25°C° 0 mm 1 m/S 716 mmHg 90%
    22:00 +22°C° 0 mm 0 m/S 716 mmHg 90%
    23:00 +22°C° 0.1 mm 0 m/S 716 mmHg 91%

    übermorgen, 23 Oktober, Dienstag

    Zeit Temperatur Niederschläge Wind Luftdruck Luftfeuchtigkeit
    00:00 +22°C° 0.1 mm 0 m/S 716 mmHg 92%
    01:00 +24°C° 0.1 mm 1 m/S 715 mmHg 93%
    02:00 +24°C° 0.1 mm 1 m/S 715 mmHg 94%
    03:00 +23°C° 0.1 mm 1 m/S 715 mmHg 95%
    04:00 +23°C° 0.1 mm 1 m/S 715 mmHg 96%
    05:00 +24°C° 0 mm 1 m/S 716 mmHg 94%
    06:00 +24°C° 0 mm 1 m/S 716 mmHg 93%
    07:00 +24°C° 0 mm 2 m/S 717 mmHg 92%
    08:00 +26°C° 0.9 mm 2 m/S 717 mmHg 89%
    09:00 +27°C° 0.9 mm 2 m/S 718 mmHg 87%
    10:00 +28°C° 0.9 mm 2 m/S 718 mmHg 84%
    11:00 +28°C° 1.7 mm 1 m/S 717 mmHg 83%
    12:00 +28°C° 1.7 mm 1 m/S 716 mmHg 82%
    13:00 +28°C° 1.7 mm 1 m/S 716 mmHg 81%
    14:00 +28°C° 0.7 mm 1 m/S 716 mmHg 85%
    15:00 +27°C° 0.7 mm 1 m/S 716 mmHg 89%
    16:00 +26°C° 0.7 mm 1 m/S 715 mmHg 92%
    17:00 +25°C° 0.2 mm 1 m/S 716 mmHg 93%
    18:00 +25°C° 0.2 mm 1 m/S 716 mmHg 94%
    19:00 +24°C° 0.2 mm 1 m/S 717 mmHg 96%
    20:00 +24°C° 0.4 mm 1 m/S 717 mmHg 96%
    21:00 +24°C° 0.4 mm 1 m/S 717 mmHg 96%
    22:00 +23°C° 0.4 mm 1 m/S 717 mmHg 96%
    23:00 +23°C° 0 mm 1 m/S 717 mmHg 96%

    24 Oktober, Mittwoch

    Zeit Temperatur Niederschläge Wind Luftdruck Luftfeuchtigkeit
    00:00 +23°C° 0 mm 1 m/S 716 mmHg 97%
    01:00 +23°C° 0 mm 1 m/S 716 mmHg 97%
    02:00 +23°C° 0 mm 1 m/S 716 mmHg 97%
    03:00 +22°C° 0 mm 1 m/S 716 mmHg 97%
    04:00 +22°C° 0 mm 1 m/S 716 mmHg 97%
    05:00 +23°C° 0 mm 1 m/S 716 mmHg 95%
    06:00 +24°C° 0 mm 1 m/S 717 mmHg 92%
    07:00 +24°C° 0 mm 2 m/S 717 mmHg 90%
    08:00 +26°C° 0 mm 2 m/S 717 mmHg 79%
    09:00 +29°C° 0 mm 2 m/S 717 mmHg 67%
    10:00 +31°C° 0 mm 2 m/S 718 mmHg 56%
    11:00 +32°C° 0 mm 2 m/S 717 mmHg 52%
    12:00 +34°C° 0 mm 1 m/S 716 mmHg 48%
    13:00 +35°C° 0 mm 1 m/S 715 mmHg 43%
    14:00 +34°C° 0.9 mm 2 m/S 714 mmHg 51%
    15:00 +31°C° 0.9 mm 2 m/S 714 mmHg 60%
    16:00 +29°C° 0.9 mm 2 m/S 713 mmHg 68%
    17:00 +28°C° 3 mm 2 m/S 714 mmHg 77%
    18:00 +26°C° 3 mm 2 m/S 715 mmHg 86%
    19:00 +24°C° 3 mm 2 m/S 715 mmHg 95%
    20:00 +24°C° 0.9 mm 1 m/S 716 mmHg 95%
    21:00 +24°C° 0.9 mm 1 m/S 716 mmHg 94%
    22:00 +24°C° 0.9 mm 1 m/S 716 mmHg 94%
    23:00 +24°C° 0 mm 1 m/S 716 mmHg 93%

    25 Oktober, Donnerstag

    Zeit Temperatur Niederschläge Wind Luftdruck Luftfeuchtigkeit
    00:00 +22°C° 0 mm 0 m/S 715 mmHg 92%
    01:00 +21°C° 0 mm 0 m/S 715 mmHg 92%
    02:00 +21°C° 0 mm 0 m/S 715 mmHg 92%
    03:00 +21°C° 0 mm 0 m/S 714 mmHg 92%
    04:00 +21°C° 0 mm 0 m/S 714 mmHg 92%
    05:00 +24°C° 0 mm 1 m/S 715 mmHg 90%
    06:00 +25°C° 0 mm 1 m/S 716 mmHg 87%
    07:00 +26°C° 0 mm 1 m/S 716 mmHg 85%
    08:00 +29°C° 0 mm 2 m/S 716 mmHg 72%
    09:00 +32°C° 0 mm 2 m/S 716 mmHg 59%
    10:00 +36°C° 0 mm 2 m/S 716 mmHg 45%
    11:00 +36°C° 0 mm 1 m/S 715 mmHg 41%
    12:00 +39°C° 0 mm 1 m/S 714 mmHg 37%
    13:00 +40°C° 0 mm 1 m/S 714 mmHg 33%
    14:00 +35°C° 0 mm 0 m/S 713 mmHg 38%
    15:00 +34°C° 0 mm 0 m/S 713 mmHg 42%
    16:00 +32°C° 0 mm 0 m/S 713 mmHg 47%
    17:00 +30°C° 0.3 mm 0 m/S 714 mmHg 55%
    18:00 +30°C° 0.3 mm 1 m/S 714 mmHg 63%
    19:00 +28°C° 0.3 mm 1 m/S 714 mmHg 71%
    20:00 +27°C° 0.7 mm 1 m/S 715 mmHg 78%
    21:00 +26°C° 0.7 mm 1 m/S 715 mmHg 85%
    22:00 +23°C° 0.7 mm 0 m/S 716 mmHg 93%
    23:00 +22°C° 0 mm 0 m/S 715 mmHg 92%

    26 Oktober, Freitag

    Zeit Temperatur Niederschläge Wind Luftdruck Luftfeuchtigkeit
    00:00 +22°C° 0 mm 0 m/S 714 mmHg 92%
    01:00 +22°C° 0 mm 0 m/S 714 mmHg 92%
    02:00 +22°C° 0 mm 0 m/S 714 mmHg 93%
    03:00 +22°C° 0 mm 0 m/S 714 mmHg 93%
    04:00 +24°C° 0 mm 1 m/S 714 mmHg 94%
    05:00 +24°C° 0 mm 1 m/S 715 mmHg 92%
    06:00 +25°C° 0 mm 1 m/S 715 mmHg 91%
    07:00 +25°C° 0 mm 1 m/S 716 mmHg 90%
    08:00 +28°C° 0 mm 1 m/S 716 mmHg 79%
    09:00 +30°C° 0 mm 1 m/S 716 mmHg 67%
    10:00 +32°C° 0 mm 1 m/S 717 mmHg 56%
    11:00 +33°C° 0.6 mm 1 m/S 716 mmHg 57%
    12:00 +34°C° 0.6 mm 1 m/S 715 mmHg 58%
    13:00 +34°C° 0.6 mm 1 m/S 714 mmHg 59%
    14:00 +33°C° 0.8 mm 1 m/S 714 mmHg 66%
    15:00 +31°C° 0.8 mm 1 m/S 714 mmHg 73%
    16:00 +29°C° 0.8 mm 1 m/S 714 mmHg 80%
    17:00 +28°C° 0 mm 1 m/S 714 mmHg 82%
    18:00 +25°C° 0 mm 0 m/S 715 mmHg 83%
    19:00 +24°C° 0 mm 0 m/S 715 mmHg 84%
    20:00 +23°C° 0.1 mm 0 m/S 715 mmHg 84%
    21:00 +23°C° 0.1 mm 0 m/S 716 mmHg 85%
    22:00 +23°C° 0.1 mm 0 m/S 716 mmHg 86%
    23:00 +23°C° 0 mm 0 m/S 715 mmHg 86%
    Mehr zeigen